TimeEST,TemperatureF,Dew PointF,Humidity,Sea Level PressureIn,VisibilityMPH,Wind Direction,Wind SpeedMPH,Gust SpeedMPH,PrecipitationIn,Events,Conditions,WindDirDegrees,DateUTC
12:35 AM,42.8,42.8,100,29.92,0.2,Calm,Calm,-,N/A,,Overcast,0,2014-01-11 05:35:00
12:55 AM,42.8,42.8,100,29.91,0.2,Calm,Calm,-,N/A,,Overcast,0,2014-01-11 05:55:00
1:15 AM,42.8,42.8,100,29.89,0.2,Calm,Calm,-,N/A,,Overcast,0,2014-01-11 06:15:00
1:35 AM,42.8,42.8,100,29.87,0.2,Calm,Calm,-,N/A,,Overcast,0,2014-01-11 06:35:00
1:55 AM,44.6,42.8,93,29.86,0.5,Calm,Calm,-,N/A,,Overcast,0,2014-01-11 06:55:00
2:15 AM,44.6,44.6,100,29.85,1.0,Calm,Calm,-,N/A,,Overcast,0,2014-01-11 07:15:00
2:35 AM,44.6,44.6,100,29.83,1.0,Calm,Calm,-,N/A,,Overcast,0,2014-01-11 07:35:00
2:55 AM,44.6,44.6,100,29.82,0.8,Calm,Calm,-,N/A,,Overcast,0,2014-01-11 07:55:00
3:15 AM,44.6,44.6,100,29.82,1.5,Calm,Calm,-,N/A,,Overcast,0,2014-01-11 08:15:00
3:35 AM,44.6,44.6,100,29.80,0.5,Calm,Calm,-,N/A,,Overcast,0,2014-01-11 08:35:00
3:55 AM,44.6,44.6,100,29.79,1.2,Calm,Calm,-,N/A,,Overcast,0,2014-01-11 08:55:00
4:15 AM,46.4,46.4,100,29.75,1.0,Calm,Calm,-,N/A,,Overcast,0,2014-01-11 09:15:00
4:35 AM,46.4,46.4,100,29.73,0.5,Calm,Calm,-,N/A,,Overcast,0,2014-01-11 09:35:00
4:55 AM,46.4,46.4,100,29.70,0.5,Calm,Calm,-,N/A,,Overcast,0,2014-01-11 09:55:00
5:15 AM,46.4,46.4,100,29.71,2.5,Variable,5.8,-,N/A,,Overcast,0,2014-01-11 10:15:00
5:35 AM,55.4,55.4,100,29.69,9.0,South,9.2,-,N/A,,Overcast,190,2014-01-11 10:35:00
5:55 AM,59.0,59.0,100,29.69,9.0,WNW,11.5,-,N/A,,Overcast,290,2014-01-11 10:55:00
6:15 AM,53.6,53.6,100,29.72,3.0,WSW,12.7,-,N/A,,Overcast,240,2014-01-11 11:15:00
6:35 AM,53.6,53.6,100,29.71,4.0,West,12.7,-,N/A,,Overcast,280,2014-01-11 11:35:00
6:55 AM,55.4,53.6,94,29.72,3.0,West,10.4,-,N/A,,Overcast,270,2014-01-11 11:55:00
7:15 AM,55.4,55.4,100,29.72,5.0,WSW,10.4,-,N/A,,Overcast,250,2014-01-11 12:15:00
7:35 AM,55.4,55.4,100,29.73,5.0,South,5.8,-,N/A,,Overcast,180,2014-01-11 12:35:00
7:55 AM,55.4,55.4,100,29.75,6.0,SW,6.9,-,N/A,,Overcast,220,2014-01-11 12:55:00
8:15 AM,55.4,53.6,94,29.76,6.0,SW,6.9,-,N/A,,Mostly Cloudy,230,2014-01-11 13:15:00
8:35 AM,55.4,53.6,94,29.77,4.0,Variable,4.6,-,N/A,,Overcast,0,2014-01-11 13:35:00
8:55 AM,53.6,53.6,100,29.78,5.0,SW,5.8,-,N/A,,Overcast,220,2014-01-11 13:55:00
9:15 AM,53.6,53.6,100,29.77,8.0,Variable,5.8,-,N/A,,Mostly Cloudy,0,2014-01-11 14:15:00
9:35 AM,53.6,53.6,100,29.74,10.0,Variable,3.5,-,N/A,,Mostly Cloudy,0,2014-01-11 14:35:00
9:55 AM,53.6,53.6,100,29.75,10.0,Calm,Calm,-,N/A,,Scattered Clouds,0,2014-01-11 14:55:00
10:15 AM,53.6,53.6,100,29.77,10.0,SW,4.6,-,N/A,,Partly Cloudy,230,2014-01-11 15:15:00
10:35 AM,55.4,53.6,94,29.77,10.0,SW,5.8,-,N/A,,Clear,220,2014-01-11 15:35:00
10:55 AM,55.4,55.4,100,29.77,10.0,SW,8.1,-,N/A,,Clear,230,2014-01-11 15:55:00
11:15 AM,55.4,53.6,94,29.78,10.0,SW,10.4,-,N/A,,Clear,230,2014-01-11 16:15:00
11:35 AM,55.4,53.6,94,29.77,10.0,SW,10.4,-,N/A,,Clear,230,2014-01-11 16:35:00
11:55 AM,55.4,51.8,88,29.76,10.0,SW,10.4,-,N/A,,Clear,220,2014-01-11 16:55:00
12:15 PM,57.2,51.8,82,29.75,10.0,SW,9.2,-,N/A,,Clear,230,2014-01-11 17:15:00
12:35 PM,57.2,51.8,82,29.75,10.0,SSW,10.4,-,N/A,,Clear,210,2014-01-11 17:35:00
12:55 PM,57.2,51.8,82,29.73,10.0,SW,10.4,-,N/A,,Partly Cloudy,220,2014-01-11 17:55:00
1:15 PM,57.2,48.2,72,29.72,10.0,SW,11.5,-,N/A,,Partly Cloudy,220,2014-01-11 18:15:00
1:35 PM,57.2,48.2,72,29.71,10.0,SW,11.5,-,N/A,,Clear,230,2014-01-11 18:35:00
1:55 PM,59.0,46.4,63,29.70,10.0,SW,11.5,-,N/A,,Clear,220,2014-01-11 18:55:00
2:15 PM,60.8,46.4,59,29.70,10.0,SSW,10.4,-,N/A,,Partly Cloudy,200,2014-01-11 19:15:00
2:35 PM,60.8,44.6,55,29.69,10.0,SSW,11.5,-,N/A,,Clear,210,2014-01-11 19:35:00
2:55 PM,60.8,42.8,52,29.67,10.0,SW,12.7,-,N/A,,Clear,220,2014-01-11 19:55:00
3:15 PM,60.8,41.0,48,29.68,10.0,SW,15.0,-,N/A,,Clear,220,2014-01-11 20:15:00
3:35 PM,60.8,35.6,39,29.68,10.0,WSW,13.8,-,N/A,,Partly Cloudy,240,2014-01-11 20:35:00
3:55 PM,59.0,33.8,39,29.69,10.0,WSW,10.4,-,N/A,,Partly Cloudy,240,2014-01-11 20:55:00
4:15 PM,59.0,32.0,36,29.69,10.0,SW,11.5,-,N/A,,Clear,230,2014-01-11 21:15:00
4:35 PM,59.0,33.8,39,29.70,10.0,WSW,9.2,-,N/A,,Clear,240,2014-01-11 21:35:00
4:55 PM,57.2,32.0,38,29.71,10.0,West,5.8,-,N/A,,Partly Cloudy,270,2014-01-11 21:55:00
5:15 PM,57.2,30.2,36,29.72,10.0,West,11.5,-,N/A,,Clear,280,2014-01-11 22:15:00
5:35 PM,55.4,30.2,38,29.73,10.0,Variable,6.9,-,N/A,,Clear,0,2014-01-11 22:35:00
5:55 PM,53.6,32.0,44,29.74,10.0,West,9.2,-,N/A,,Clear,270,2014-01-11 22:55:00
6:15 PM,53.6,32.0,44,29.76,10.0,West,5.8,-,N/A,,Clear,270,2014-01-11 23:15:00
6:35 PM,53.6,33.8,47,29.77,10.0,West,3.5,-,N/A,,Mostly Cloudy,280,2014-01-11 23:35:00
6:55 PM,53.6,33.8,47,29.79,10.0,West,8.1,-,N/A,,Overcast,270,2014-01-11 23:55:00
7:15 PM,53.6,33.8,47,29.80,10.0,Variable,6.9,-,N/A,,Mostly Cloudy,0,2014-01-12 00:15:00
7:35 PM,51.8,35.6,54,29.82,10.0,WNW,9.2,-,N/A,,Overcast,300,2014-01-12 00:35:00
7:55 PM,51.8,35.6,54,29.83,10.0,West,10.4,-,N/A,,Overcast,270,2014-01-12 00:55:00
8:15 PM,50.0,35.6,58,29.85,10.0,West,9.2,-,N/A,,Scattered Clouds,280,2014-01-12 01:15:00
8:35 PM,48.2,33.8,58,29.86,10.0,West,10.4,-,N/A,,Partly Cloudy,270,2014-01-12 01:35:00
8:55 PM,48.2,33.8,58,29.87,10.0,West,4.6,-,N/A,,Clear,270,2014-01-12 01:55:00
9:15 PM,48.2,33.8,58,29.89,10.0,Variable,3.5,-,N/A,,Clear,0,2014-01-12 02:15:00
9:35 PM,46.4,33.8,62,29.90,10.0,West,4.6,-,N/A,,Clear,270,2014-01-12 02:35:00
9:55 PM,46.4,33.8,62,29.91,10.0,WSW,4.6,-,N/A,,Clear,250,2014-01-12 02:55:00
10:15 PM,46.4,33.8,62,29.92,10.0,WSW,5.8,-,N/A,,Clear,250,2014-01-12 03:15:00
10:35 PM,46.4,33.8,62,29.93,10.0,Variable,3.5,-,N/A,,Clear,0,2014-01-12 03:35:00
10:55 PM,44.6,33.8,66,29.95,10.0,Calm,Calm,-,N/A,,Clear,0,2014-01-12 03:55:00
11:15 PM,42.8,33.8,70,29.95,10.0,West,3.5,-,N/A,,Clear,270,2014-01-12 04:15:00
11:35 PM,42.8,33.8,70,29.96,10.0,Calm,Calm,-,N/A,,Clear,0,2014-01-12 04:35:00
11:55 PM,39.2,33.8,81,29.97,10.0,Calm,Calm,-,N/A,,Clear,0,2014-01-12 04:55:00